Regional Weather Roundup
Issued by NWS

Home | Current Version | Previous Version | Text Only | Print | Product List | Glossary On
Versions: 1 2 3 4 5 6 7 8 9 10 11 12 13 14 15 16 17 18 19 20 21 22 23 24 25 26 27 28 29 30 31 32 33 34 35 36 37 38 39 40 41 42 43 44 45 46 47 48 49 50
000
ASUS44 KFWD 240215
RWRTX
NORTH TEXAS HOURLY WEATHER ROUNDUP
NATIONAL WEATHER SERVICE FORT WORTH TX
800 PM CST THU NOV 23 2017

NOTE: "FAIR" INDICATES FEW OR NO CLOUDS BELOW 12,000 FEET WITH NO
SIGNIFICANT WEATHER AND/OR OBSTRUCTIONS TO VISIBILITY.

TXZ118-119-240300-
DALLAS/FORT WORTH METROPLEX

CITY           SKY/WX    TMP DP  RH WIND       PRES   REMARKS
DFW AIRPORT    PTCLDY    56  32  40 SE7       30.03S
DALLAS LOVE    PTCLDY    56  30  37 SE8       30.05R
FTW MEACHAM    CLEAR     58  33  39 S6        30.04R
DAL-EXECUTIVE  CLEAR     56  30  37 S5        30.05R
FTW-ALLIANCE   PTCLDY    55  33  43 S3        30.04R
FTW-NAS-JRB    CLEAR     57  32  38 S6        30.05R
FTW-SPINKS     CLEAR     54  31  41 S7        30.07R
ARLINGTON      CLEAR     51  33  50 SE3       30.05R
GRAND PRAIRIE  CLEAR     57  31  37 CALM      30.07R
ADDISON        CLEAR     55  28  35 SE7       30.06R
MESQUITE       CLEAR     52  28  40 SE5       30.07R
LANCASTER      CLEAR     53  29  39 CALM      30.07R
$$

TXZ091>094-102>105-117-120-121-131>134-240300-
NORTH CENTRAL TEXAS

CITY           SKY/WX    TMP DP  RH WIND       PRES   REMARKS
SHRMAN/DENISON CLEAR     53  31  43 S8        30.05S
GAINESVILLE    CLEAR     52  31  44 CALM      30.06S
BOWIE          CLEAR     54  32  42 SE3       30.03S
BRIDGEPORT     CLEAR     57  32  39 S6        30.05S
DECATUR        CLEAR     56  31  38 S9        30.03S
DENTON         CLEAR     54  32  43 SE6       30.04S
MCKINNEY       CLEAR     50  34  54 CALM      30.05S
BONHAM         CLEAR     51  29  42 S6        30.06S
GREENVILLE     CLEAR     46  36  66 CALM      30.07S
ROCKWALL       CLEAR     55  32  41 S6        30.06S
TERRELL        CLEAR     51  31  46 CALM      30.07R
WAXAHACHIE     CLEAR     52  32  45 CALM      30.07R
CLEBURNE       CLEAR     54  30  40 S7        30.07S
GRANBURY       CLEAR     59  34  39 SE6       30.06S
$$

TXZ083>090-098>101-113>116-127>130-139>142-154-155-240300-
WESTERN NORTH TEXAS

CITY           SKY/WX    TMP DP  RH WIND       PRES   REMARKS
WICHITA FALLS  CLOUDY    57  34  41 S5        30.01S
WF-KICKAPOO    CLOUDY    56  36  47 SE5       30.04R
VERNON         CLOUDY    58  30  35 S6        30.00F
ABILENE        CLEAR     54  36  50 S9        30.05R
ABILENE-DYESS  CLEAR     48  38  67 S6        30.04R
GRAHAM           N/A     54  34  47 CALM      30.02R
BRECKENRIDGE   CLEAR     59  32  35 SE9       30.03S
CISCO          CLEAR     57  34  41 SW8       30.05S
EASTLAND       CLEAR     46  32  58 CALM      30.04F
RANGER         CLEAR     59  32  35 S5        30.05S
MINERAL WELLS  CLEAR     56  32  40 SE10      30.03R
STEPHENVILLE   CLEAR     56  31  38 CALM      30.08R
COMANCHE       CLEAR     55  34  45 S6        30.06S
BROWNWOOD      PTCLDY    50  32  50 CALM      30.06S
COLEMAN        CLEAR     55  33  43 CALM      30.06S
$$

TXZ143>147-156>162-174-175-240300-
CENTRAL TEXAS

CITY           SKY/WX    TMP DP  RH WIND       PRES   REMARKS
WACO           CLEAR     54  34  46 S7        30.07R
WACO-TSTC      CLEAR     54  30  40 SE3       30.07S
WACO-MCGREGOR  CLEAR     53  30  41 S5        30.07S
HILLSBORO      CLEAR     52  32  47 SE3       30.06R
CORSICANA      CLEAR     53  38  56 SE6       30.08R
MEXIA          CLEAR     52  30  42 SE5       30.07R
HEARNE         CLEAR     45  38  74 CALM      30.09S
CAMERON        CLEAR     54  32  43 S6        30.08S
TEMPLE         CLEAR     55  29  36 S6        30.07F
KILLEEN        CLEAR     56  29  36 SE7       30.06S
KILLEEN-SKYLRK CLEAR     52  33  48 S3        30.07F
FORT HOOD      CLEAR     54  33  44 SE3       30.04S
GATESVILLE     CLEAR     55  30  38 SE6       30.08S
HAMILTON       CLEAR     56  35  44 S6        30.07S
LAMPASAS       CLEAR     55  34  44 CALM      30.06S
$$

TXZ095>097-106>112-122>126-135>138-148>153-164>167-240300-
EAST TEXAS

CITY           SKY/WX    TMP DP  RH WIND       PRES   REMARKS
PARIS          CLEAR     48  29  47 S6        30.06F
SULPHUR SPRNGS CLEAR     49  34  55 CALM      30.09S
MOUNT PLEASANT CLEAR     46  37  68 CALM      30.10R
GILMER         CLEAR     44  37  74 CALM      30.08R
MINEOLA        CLEAR     45  36  70 CALM      30.08R
TYLER          CLEAR     48  36  63 S5        30.07R
LONGVIEW       CLEAR     46  42  86 SE3       30.07S
MARSHALL       CLEAR     39  34  84 CALM      30.10R
ATHENS         CLEAR     43  32  65 CALM      30.07R
PALESTINE      CLEAR     45  38  78 CALM      30.09R
JACKSONVILLE   CLEAR     53  34  48 CALM      30.09S
HENDERSON      CLEAR     43  38  80 CALM      30.09R
CENTER         CLEAR     41  37  86 SE3       30.10S
NACOGDOCHES    CLEAR     43  38  82 CALM      30.09S
LUFKIN         CLEAR     44  40  85 E5        30.09S
$$

SUPPLEMENTAL OBSERVATIONS (NWS FORT WORTH AREA)

CITY           SKY/WX    TMP DP  RH WIND       PRES   REMARKS
DENISON DAM      N/A     55  34  44 SE3         N/A
CADDO GRASSLND   N/A     48  36  61 S2          N/A
PAT MAYSE LAKE   N/A     54  28  37 SE5         N/A
GREENVILLE       N/A     52  30  43 SE3         N/A
CEDAR HILL       N/A     55  28  35 SE6         N/A
LBJ GRASSLAND    N/A     61  32  33 SE8         N/A
POSSUM KINGDOM   N/A     61  32  33 SE5         N/A
GRANBURY         N/A     59  32  36 SE7         N/A
MCGREGOR         N/A     52  30  43 SW3         N/A
TEMPLE           N/A     55  28  35 SE2         N/A
ATHENS           N/A     46  36  66 CALM        N/A
$$

SUPPLEMENTAL OBSERVATIONS (NWS NORMAN AREA)

CITY           SKY/WX    TMP DP  RH WIND       PRES   REMARKS
GOODLETT         N/A     58  33  38 S8        30.00R
ODELL            N/A     59  35  39 SE10      30.01S
CROWELL          N/A     56  35  43 S6        30.02S
KNOX CITY        N/A     54  32  43 SE7       30.02S
SEYMOUR          N/A     53  34  48 SE7       30.02S
MILLERS CREEK    N/A     55  37  50 S3          N/A
$$

SUPPLEMENTAL OBSERVATIONS (NWS SAN ANGELO AREA)

CITY           SKY/WX    TMP DP  RH WIND       PRES   REMARKS
WEINERT          N/A     57  33  41 SE9       30.03S
HASKELL          N/A     62  30  29 SE5       30.03S
THROCKMORTON     N/A     53  38  56 S3        30.04R
STAMFORD         N/A     55  34  44 S6        30.04S
CLYDE            N/A     57  34  41 S7        30.07R
HAMBY            N/A     54  32  43 SE3         N/A
IVIE RESERVOIR   N/A     57  32  38 SE3         N/A
COLORADO BEND    N/A     52  28  40 CALM        N/A
$$

SUPPLEMENTAL OBSERVATIONS (NWS SHREVEPORT AREA)

CITY           SKY/WX    TMP DP  RH WIND       PRES   REMARKS
CLARKSVILLE      N/A     48  28  46 CALM        N/A
TEXARKANA        N/A     39  36  87 CALM        N/A
LINDEN           N/A     45  36  70 CALM        N/A
CADDO LAKE       N/A     36  32  87 CALM        N/A
GILMER           N/A     45  37  76 CALM        N/A
HENDERSON        N/A     43  36  75 CALM        N/A
N SABINE NF      N/A     41  37  87 MISG        N/A
S SABINE NF      N/A     39  36  87 CALM        N/A
$$

SUPPLEMENTAL OBSERVATIONS ARE A COLLECTION OF AUTOMATED INSTRUMENTS
THAT ARE MAINTAINED BY A VARIETY OF FEDERAL AND STATE AGENCIES.
CERTAIN ELEMENTS...SUCH AS HUMIDITY VALUES AND SUSTAINED WIND
SPEEDS...MAY BE APPROXIMATED.





USA.gov is the U.S. government's official web portal to all federal, state and local government web resources and services.